Location: Ar Ranvel
(48.3000°N, 4.8833°W)
Time: 21:54:49
(UTC+00:00)

Meteor 2-10 Rocket - Pass Details

Date: 28 October 2021
Orbit: 733 x 885 km, 81.2° (Epoch: 30 November)

Event Time Altitude Azimuth Distance (km) Brightness Sun altitude
Rises 04:26:26 0° 354° (N) 3,196 6.8 -25.9°
Reaches altitude 10° 04:28:59 10° 4° (N) 2,257 6.1 -25.4°
Maximum altitude 04:33:36 35° 70° (ENE) 1,182 5.0 -24.7°
Drops below altitude 10° 04:38:09 10° 136° (SE) 2,237 6.4 -23.9°
Sets 04:40:40 0° 145° (SE) 3,163 7.1 -23.5°
